Date String (YYYY-MM-DD hh:mm:ss) UTC,Instrument flags,Ambient pressure (hPa),Sample flow (lpm),Bypass flow (lpm),Sample temperature (°C),Ambient temperature (°C),ASC tube jacket temperature (°C),LED temperature (°C),Box temperature (°C),Sample RH (%),Span deviation,Mass concentration (μg/m³),Mass concentration (μg/m³),Mass concentration (μg/m³)
DateTimeUTC,F1_M11,P_M11,Q1_M11,Q2_M11,T1_M11,T2_M11,T3_M11,T4_M11,T5_M11,U1_M11,ZSPAN_M11,X0_M11,X2_M11,X1_M11
2023-03-11 12:00:00,,0814.3,4.98,0.00,21.5,21.5,00.0,30.3,23.4,23.0,-003.4,0008.67,0004.88,0004.51
2023-03-11 12:01:00,,0813.8,5.00,0.00,21.6,22.4,00.0,30.3,23.6,22.9,-003.2,0008.58,0004.82,0004.46
2023-03-11 12:02:00,,0813.8,4.98,0.00,21.7,22.0,00.0,30.4,23.6,22.7,-003.2,0008.06,0004.78,0004.41
2023-03-11 12:03:00,,0813.9,5.00,0.00,21.7,21.5,00.0,30.4,23.4,22.7,-003.0,0008.06,0004.73,0004.39
2023-03-11 12:04:00,,0813.9,5.00,0.00,21.6,21.0,00.0,30.4,23.3,22.8,-003.0,0008.29,0004.68,0004.33
2023-03-11 12:05:00,,0813.9,5.00,0.00,21.6,20.6,00.0,30.4,23.2,22.9,-002.9,0008.53,0004.61,0004.25
2023-03-11 12:06:00,,0813.9,5.00,0.00,21.6,20.3,00.0,30.4,23.1,22.9,-003.0,0008.59,0004.58,0004.21
2023-03-11 12:07:00,,0813.9,5.00,0.00,21.5,20.2,00.0,30.4,23.1,22.9,-003.2,0008.49,0004.56,0004.18
2023-03-11 12:08:00,,0813.8,5.03,0.00,21.5,20.0,00.0,30.4,23.0,22.9,-003.5,0008.38,0004.52,0004.15
2023-03-11 12:09:00,,0813.9,5.02,0.00,21.5,19.9,00.0,30.3,23.0,22.9,-003.5,0008.57,0004.48,0004.13
2023-03-11 12:10:00,,0813.9,5.00,0.00,21.4,19.8,00.0,30.3,23.0,23.0,-003.4,0009.16,0004.46,0004.10
2023-03-11 12:11:00,,0814.3,5.00,0.00,21.4,19.7,00.0,30.3,22.9,23.1,-003.2,0009.56,0004.42,0004.07
2023-03-11 12:12:00,,0814.3,5.00,0.00,21.4,19.7,00.0,30.3,23.0,23.3,-003.1,0009.98,0004.43,0004.08
2023-03-11 12:13:00,,0814.2,5.01,0.00,21.4,19.7,00.0,30.3,23.0,23.3,-002.9,0009.90,0004.39,0004.05
2023-03-11 12:14:00,,0814.1,5.01,0.00,21.4,19.8,00.0,30.3,23.1,23.1,-003.0,0009.76,0004.37,0004.02
2023-03-11 12:15:00,,0813.7,5.01,0.00,21.4,19.9,00.0,30.3,23.1,23.0,-003.0,0009.64,0004.40,0004.04
2023-03-11 12:16:00,,0813.6,5.01,0.00,21.4,19.9,00.0,30.3,23.2,23.0,-003.0,0009.70,0004.43,0004.08
2023-03-11 12:17:00,,0813.5,4.99,0.00,21.4,19.9,00.0,30.3,23.2,22.9,-002.9,0010.11,0004.40,0004.07
2023-03-11 12:18:00,,0813.5,4.99,0.00,21.4,20.0,00.0,30.3,23.2,22.9,-002.7,0010.02,0004.35,0004.03
2023-03-11 12:19:00,,0813.6,5.01,0.00,21.5,20.0,00.0,30.3,23.2,23.0,-002.4,0010.00,0004.29,0003.98
2023-03-11 12:20:00,,0813.6,5.00,0.00,21.5,20.0,00.0,30.3,23.2,23.0,-002.2,0009.85,0004.24,0003.92
2023-03-11 12:21:00,,0813.6,5.00,0.00,21.5,20.8,00.0,30.3,23.4,23.1,-002.4,0009.48,0004.16,0003.86
2023-03-11 12:22:00,,0813.6,5.00,0.00,21.7,22.1,00.0,30.3,23.7,22.9,-002.4,0009.22,0004.08,0003.81
2023-03-11 12:23:00,,0813.6,4.99,0.00,21.8,22.9,00.0,30.3,23.9,22.7,-002.3,0008.84,0004.05,0003.78
2023-03-11 12:24:00,,0813.6,5.00,0.00,21.9,22.5,00.0,30.4,23.9,22.6,-002.4,0008.87,0004.06,0003.78
2023-03-11 12:25:00,,0813.6,5.01,0.00,21.9,22.1,00.0,30.5,23.9,22.6,-002.4,0009.15,0004.06,0003.75
2023-03-11 12:26:00,,0814.0,5.00,0.00,22.0,21.7,00.0,30.5,23.8,22.6,-002.2,0009.17,0004.01,0003.70
2023-03-11 12:27:00,,0814.2,5.01,0.00,22.0,21.4,00.0,30.5,23.8,22.5,-002.4,0009.57,0003.98,0003.66
2023-03-11 12:28:00,,0814.2,5.00,0.00,22.0,21.1,00.0,30.5,23.8,22.4,-002.8,0008.92,0003.98,0003.65
2023-03-11 12:29:00,,0813.9,5.00,0.00,22.0,20.9,00.0,30.6,23.8,22.3,-003.0,0009.04,0004.00,0003.66
2023-03-11 12:30:00,,0813.9,5.00,0.00,22.0,20.8,00.0,30.6,23.8,22.3,-002.6,0009.13,0004.05,0003.69
2023-03-11 12:31:00,,0813.9,5.01,0.00,22.0,20.7,00.0,30.6,23.8,22.2,-002.5,0009.07,0004.05,0003.71
2023-03-11 12:32:00,,0813.9,5.00,0.00,22.0,20.6,00.0,30.6,23.7,22.2,-002.9,0008.78,0004.10,0003.74
2023-03-11 12:33:00,,0813.9,5.00,0.00,22.0,20.6,00.0,30.6,23.7,22.2,-003.0,0008.68,0004.17,0003.78
2023-03-11 12:34:00,,0814.0,5.00,0.00,21.9,20.5,00.0,30.6,23.7,22.2,-002.9,0008.90,0004.22,0003.81
2023-03-11 12:35:00,,0814.4,4.99,0.00,21.9,20.4,00.0,30.6,23.6,22.2,-003.0,0008.89,0004.23,0003.84
2023-03-11 12:36:00,,0813.9,5.00,0.00,21.9,20.3,00.0,30.6,23.6,22.2,-003.1,0008.67,0004.25,0003.88
2023-03-11 12:37:00,,0813.9,5.01,0.00,21.9,20.2,00.0,30.6,23.5,22.3,-003.3,0008.83,0004.29,0003.92
2023-03-11 12:38:00,,0813.9,5.01,0.00,21.9,20.1,00.0,30.6,23.5,22.3,-003.4,0008.19,0004.34,0003.96
2023-03-11 12:39:00,,0814.0,4.99,0.00,21.8,20.0,00.0,30.6,23.5,22.3,-003.6,0009.19,0004.38,0003.97
2023-03-11 12:40:00,,0814.2,5.00,0.00,21.8,20.0,00.0,30.6,23.5,22.3,-003.6,0009.22,0004.41,0003.99
2023-03-11 12:41:00,,0814.0,5.00,0.00,21.8,20.1,00.0,30.6,23.5,22.3,-003.7,0009.23,0004.40,0004.02
2023-03-11 12:42:00,,0814.1,4.99,0.00,21.8,20.1,00.0,30.6,23.5,22.3,-003.8,0009.38,0004.42,0004.03
2023-03-11 12:43:00,,0814.2,4.99,0.00,21.8,20.1,00.0,30.6,23.5,22.2,-003.4,0009.42,0004.45,0004.05
2023-03-11 12:44:00,,0814.0,5.01,0.00,21.8,20.2,00.0,30.6,23.6,22.2,-003.3,0009.43,0004.48,0004.07
2023-03-11 12:45:00,,0814.0,5.00,0.00,21.8,20.2,00.0,30.6,23.6,22.2,-003.2,0009.27,0004.50,0004.09
2023-03-11 12:46:00,,0814.0,4.99,0.00,21.8,20.3,00.0,30.6,23.6,22.2,-003.2,0009.37,0004.55,0004.11
2023-03-11 12:47:00,,0814.1,5.00,0.00,21.8,20.2,00.0,30.6,23.6,22.2,-003.2,0009.82,0004.58,0004.12
2023-03-11 12:48:00,,0814.0,4.99,0.00,21.8,20.2,00.0,30.6,23.6,22.3,-003.2,0009.72,0004.57,0004.13
2023-03-11 12:49:00,,0813.9,5.01,0.00,21.8,20.2,00.0,30.6,23.6,22.5,-003.2,0009.73,0004.56,0004.14
2023-03-11 12:50:00,,0813.5,5.01,0.00,21.8,20.2,00.0,30.6,23.6,22.6,-002.7,0008.73,0004.54,0004.14
2023-03-11 12:51:00,,0813.5,5.01,0.00,21.8,20.2,00.0,30.6,23.6,22.4,-002.6,0009.28,0004.50,0004.12
2023-03-11 12:52:00,,0813.5,4.99,0.00,21.8,20.3,00.0,30.5,23.5,22.4,-002.6,0009.95,0004.47,0004.09
2023-03-11 12:53:00,,0813.5,4.98,0.00,21.8,20.3,00.0,30.5,23.5,22.5,-002.6,0009.98,0004.47,0004.06
2023-03-11 12:54:00,,0813.3,5.00,0.00,21.8,20.3,00.0,30.5,23.5,22.6,-002.9,0010.48,0004.38,0003.98
2023-03-11 12:55:00,,0813.3,5.00,0.00,21.8,20.3,00.0,30.5,23.5,22.7,-003.1,0010.48,0004.25,0003.88
2023-03-11 12:56:00,,0813.4,5.00,0.00,21.8,20.3,00.0,30.5,23.5,22.8,-003.3,0010.17,0004.10,0003.76
2023-03-11 12:57:00,,0813.3,5.01,0.00,21.8,20.1,00.0,30.5,23.4,22.8,-003.3,0009.91,0003.97,0003.67
2023-03-11 12:58:00,,0813.3,5.00,0.00,21.7,20.0,00.0,30.5,23.4,22.8,-003.4,0009.27,0003.87,0003.60
2023-03-11 12:59:00,,0813.4,5.00,0.00,21.8,20.8,00.0,30.5,23.6,22.8,-002.9,0008.98,0003.79,0003.52
